Regional Weather Roundup
Issued by NWS

Home | Current Version | Previous Version | Text Only | Print | Product List | Glossary Off
Versions: 1 2 3 4 5 6 7 8 9 10 11 12 13 14 15 16 17 18 19 20 21 22 23 24 25 26 27 28 29 30 31 32 33 34 35 36 37 38 39 40 41 42 43 44 45 46 47 48 49 50

000
ASUS43 KMKX 240211
RWRWI

WISCONSIN REGIONAL WEATHER ROUNDUP
NATIONAL WEATHER SERVICE MILWAUKEE/SULLIVAN WI
900 PM CDT FRI JUN 23 2017

NOTE: "FAIR" INDICATES FEW OR NO CLOUDS BELOW 12,000 FEET WITH NO
SIGNIFICANT WEATHER AND/OR OBSTRUCTIONS TO VISIBILITY.

WIZ001-002-006>008-014>016-023>028-240300-
NORTHWEST WISCONSIN

CITY           SKY/WX    TMP DP  RH WIND       PRES   REMARKS
SUPERIOR ARPT  NOT AVBL
ASHLAND        PTCLDY    63  52  67 W13       29.77R
HAYWARD        CLOUDY    59  55  87 CALM      29.81S
SIREN          CLOUDY    60  53  78 W3        29.85R
CUMBERLAND     MOCLDY    59  50  72 NW10      29.84S
RICE LAKE      MOCLDY    61  52  72 W8        29.85S
CHETEK         MOCLDY    62  53  72 NW10      29.83S
LADYSMITH      MOCLDY    62  51  66 W9        29.82R
EAU CLAIRE     MOCLDY    64  53  67 NW9       29.83R
MENOMONIE      MOCLDY    65  51  60 W15G21    29.85R
NEW RICHMOND   RAIN      58  52  78 NW7       29.88R
OSCEOLA        CLOUDY    61  54  76 CALM      29.90R
$$

WIZ003>005-009-010-017-018-240300-
NORTH CENTRAL WISCONSIN

CITY           SKY/WX    TMP DP  RH WIND       PRES   REMARKS
MANITOWISH WTR CLOUDY    58  53  82 CALM      29.77S
ARBOR VITAE    MOCLDY    62  51  66 NW3       29.77R
WOODRUFF       MOCLDY    62  51  66 NW3       29.77R
RHINELANDER    MOCLDY    56  51  84 W3        29.78R
EAGLE RIVER    CLOUDY    60  47  61 CALM      29.76S
LAND O LAKES   PTCLDY    60  47  62 W5        29.78R
PHILLIPS       DRIZZLE   60  53  78 W3        29.79R
TOMAHAWK       NOT AVBL
MEDFORD        MOCLDY    61  50  67 W7        29.79S
MERRILL        CLEAR     62  51  69 W7        29.79R
$$

WIZ029-030-035-036-043>047-240300-
CENTRAL WISCONSIN

CITY           SKY/WX    TMP DP  RH WIND       PRES   REMARKS
WAUSAU         CLOUDY    62  52  69 W14       29.77R
MOSINEE        MOCLDY    63  54  72 NW8       29.79R
MARSHFIELD     CLEAR     61  51  70 W6        29.79R
STEVENS POINT  PTCLDY    63  50  62 W3        29.79R
WAUPACA        PTCLDY    68  53  59 W6        29.76R
WAUTOMA        PTCLDY    64  54  69 W7        29.78R
WISC RAPIDS    CLEAR     64  52  64 W6        29.80R
CAMP DOUGLAS   CLEAR     60  55  82 W7        29.81R
$$

WIZ011>013-019>022-031-037>040-048>050-240300-
NORTHEAST WISCONSIN

CITY           SKY/WX    TMP DP  RH WIND       PRES   REMARKS
ANTIGO         PTCLDY    59  51  76 W6        29.78R
SHAWANO        PTCLDY    67  51  58 W5        29.74R
OCONTO         PTCLDY    65  51  60 W5        29.71R
STURGEON BAY     N/A     67  54  63 W10         N/A
GREEN BAY      PTCLDY    66  55  67 W8        29.73R
MANITOWOC      PTCLDY    68  53  58 W12       29.73R
APPLETON       MOCLDY    64  52  63 W8        29.74R
CLINTONVILLE   MOCLDY    64  50  59 NW7       29.75R
OSHKOSH        CLEAR     65  52  62 W6        29.75R
$$

WIZ032>034-041-042-053>061-240300-
SOUTHWEST WISCONSIN

CITY           SKY/WX    TMP DP  RH WIND       PRES   REMARKS
LA CROSSE      CLOUDY    70  57  63 NW7       29.83R
SPARTA         CLEAR     65  54  67 W7        29.83R
VIROQUA        PTCLDY    63  56  77 W6        29.85R
BOSCOBEL       CLEAR     68  56  65 SW5       29.84R
PRAIRIE DU CHI CLEAR     67  53  60 W7        29.86R
PLATTEVILLE    CLEAR     65  57  75 W8        29.86R
$$

WIZ056-057-062-063-064-067-068-240300-
SOUTH CENTRAL WISCONSIN

CITY           SKY/WX    TMP DP  RH WIND       PRES   REMARKS
REEDSBURG      CLEAR     64  55  71 W6        29.82R
BARABOO/DELLS  CLEAR     62  53  73 W5        29.81R
LONE ROCK      CLEAR     65  55  70 W3        29.82R
MINERAL POINT  CLEAR     64  55  72 W7        29.85R
MADISON        PTCLDY    66  53  63 VRB5      29.80R
MIDDLETON      CLEAR     64  55  71 W7        29.83R
WATERTOWN      CLEAR     65  54  65 NW7       29.78R
MONROE         CLEAR     64  52  63 W13G18    29.83R
JANESVILLE     PTCLDY    68  54  60 NW10      29.80R
$$

WIZ051-052-058>065-066-070>072-240300-
SOUTHEAST WISCONSIN

CITY           SKY/WX    TMP DP  RH WIND       PRES   REMARKS
MILWAUKEE      PTCLDY    72  52  49 NW13      29.75R
WAUKESHA       CLEAR     66  52  59 NW13G18   29.78R
MILWAUKEE/TIMM CLEAR     68  48  49 NW9G18    29.77R
RACINE         CLEAR     71  51  49 NW9       29.77R
KENOSHA        CLEAR     69  54  58 NW9       29.76R
FOND DU LAC    CLEAR     65  52  62 NW9       29.77R
SHEBOYGAN      PTCLDY    67  56  67 W7        29.74R
WEST BEND      CLEAR     64  50  59 NW6       29.77R
JUNEAU         CLEAR     65  54  68 W6        29.79R
$$

LSZ147-162-240300-
LAKE SUPERIOR

STATION/POSITION TIME  TEMP    WIND        PRES    WAVE
                       AIR SEA DIR/SP/G            HT/PER
                 (UTC) (F)     (DEG/KT/KT) (MB)    (FT/S)
W MID LAKE BUOY  0150   53 39  290/  6/  8 1006.5R   1/ 4
DEVILS ISLAND    0200   58     280/ 18/ 20 1007.3R
SAXON HARBOR     0140   65      CALM  /  2 1007.1R
$$

LMZ867-665-643>646-240300-
LAKE MICHIGAN

STATION/POSITION TIME  TEMP    WIND        PRES    WAVE
                       AIR SEA DIR/SP/G            HT/PER
                 (UTC) (F)     (DEG/KT/KT) (MB)    (FT/S)
CHAMBERS ISLAND  0130   68     300/  5/  9 1005.1R
S GREEN BAY BUOY 0200   69     290/ 10/ 12 1005.9
N MID LAKE BUOY  0150   60 58   30/  4/  6 1005.5R   1/ 3
NORTHPORT PIER   0140   67     290/  4/  8 1005.1R
KEWAUNEE LAKESHO 0142   69     300/  4/  6 1005.8R
SHEBOYGAN LAKESH 0200   69     280/ 12/ 15 1006.4R
PORT WASHINGTON  0130   71     300/  7/ 13 1007.8R
ATWATER BUOY     0139   67 60  290/ 10/ 12 1007.8R
MILWAUKEE LAKESH 0150   71     310/ 12/ 17   N/A
S MID LAKE BUOY  0150   67 63  350/  8/ 10 1006.8R   0
KENOSHA   LAKESH 0200   71     310/  9/ 13 1007.5
$$

TC  - TEMPERATURE IN CELSIUS
VSB - VISIBILITY IN STATUTE MILES
WCI - WIND CHILL INDEX
HX  - HEAT INDEX




USA.gov is the U.S. government's official web portal to all federal, state and local government web resources and services.